PEGASUS DEB, 23986

Orbit data source: Space-Track

PEGASUS DEB, 23986 is space debris in LEO originally from a launch on Thu, 19 May 1994 UTC launched from the Air Force Western Test Range (AFWTR). Debris objects in space refer to the collection of defunct objects orbiting the Earth. Examples of debris include non-operational satellites, rocket bodies, and fragments generated from explosions, collisions, or faulty payload assembly.

Loading next visibility...
Identifier
23986, 1994-029AG
Orbit
LEO
Country
Flag of USUS
Related business
Manufacturer
Unknown
Mission
Spacecraft
Bus & Motor
Unknown
Mass
Unknown
Launch date (UTC)
1994-05-19 (32 years ago)
Launch vehicle
Unknown
Launch site
Air Force Western Test Range (AFWTR)
Object type
Payload
Rocket body
Debris
Shape & HBR
Unknown shape, 0.1 m
Radar Cross Section
Medium (>0.1 m² and <1 m²)

Expand to show TLE details & history
Last TLE update: 23 hours ago

TLE from 23 hours ago
0 PEGASUS DEB
1 23986U 94029AG  26235.34995231  .00019886  00000-0  41380-3 0  9997
2 23986  82.0345 264.3446 0022609 283.9619  75.9114 15.45203613641130
Epoch: 2026-08-23T08:23Z
TLE epoch observation values (Epoch: 2026-08-23T08:23:55.879Z)
Latitude
-0.00001°
Longitude
166.7145°
Altitude
430.172 km
Speed
7.656 km/s
True Right ascension
17h 37m 22s
True Declination
0° 00' 00"
Sunlit
Object was in full shadow at epoch
Visualization orbit readout
Latitude
Unknown
Longitude
Unknown
Altitude
Unknown
Speed
Unknown
Apparent Right ascension
Unknown
Apparent Declination
Unknown
Sunlit
N/A
Visualization observer readout
Local Sidereal Time
22:45:28
Azimuth
Unknown
Elevation
Unknown
Doppler factor
Unknown
Orbital elements
Apogee altitude
443.125 km
Perigee altitude
412.35 km
Semi-major axis
6,805.874 km
Eccentricity
0.00226
Inclination
82.0345°
RAAN
264.3446°
Arg. of periapsis
283.9619°
True anomaly
76.16286°
Mean anomaly
75.9114°
Eccentric anomaly
76.03711°
Mean motion
3.8656 °/min
Orbital period
93.13 mins
BSTAR
0.0004138
Loading maneuver chart data...
Computing Atmospheric mass density...
Loading historical data...
Loading historical data...
Loading historical data...
Loading historical data...
Loading historical data...
Loading historical data...
Loading historical data...

Documentation

Showing up to 5 results
|